This demonstration page uses our WeatherBlox Daily Observations layout. Learn more.

Left ArrowRight Arrow

36.17497, -115.13722

Hourly Observations for October 3, 2016

Temp ( °F °C ) Dew Point ( °F °C ) Humidity (%) Winds ( mph kmh ) Pressure ( in mb ) Visibility ( mi km ) Precip ( " mm )
12:53 am 00:53 Clear 69 20.6 13 -10.6 11 11 W 26 43 29.71 1006 10 16.0934 0 0
1:53 am 01:53 Clear 67 19.4 17 -8.3 15 15 WNW 14 22 29.76 1008 10 16.0934 0 0
2:53 am 02:53 Clear 66 18.9 18 -7.8 16 16 W 14 22 29.8 1009 10 16.0934 0 0
3:53 am 03:53 Clear 63 17.2 22 -5.6 21 21 W 5 7 29.83 1010 10 16.0934 0 0
4:53 am 04:53 Clear 63 17.2 17 -8.3 17 17 NW 17 28 29.85 1011 10 16.0934 0 0
5:53 am 05:53 Clear 62 16.7 17 -8.3 17 17 NW 13 20 29.87 1011 10 16.0934 0 0
6:53 am 06:53 Sunny 62 16.7 15 -9.4 16 16 NW 15 24 29.89 1012 10 16.0934 0 0
7:53 am 07:53 Sunny 61 16.1 18 -7.8 19 19 N 12 19 29.93 1014 10 16.0934 0 0
8:53 am 08:53 Sunny 63 17.2 20 -6.7 19 19 NNW 24 39 29.94 1014 10 16.0934 0 0
9:53 am 09:53 Sunny 65 18.3 20 -6.7 18 18 NW 24 39 29.96 1015 10 16.0934 0 0
10:53 am 10:53 Sunny 66 18.9 20 -6.7 17 17 NW 22 35 29.96 1015 10 16.0934 0 0
11:53 am 11:53 Sunny 70 21.1 17 -8.3 13 13 NNW 21 33 29.93 1014 10 16.0934 0 0
12:53 pm 12:53 Sunny 72 22.2 14 -10 11 11 NNW 17 28 29.93 1014 10 16.0934 0 0
1:53 pm 13:53 Sunny 72 22.2 14 -10 11 11 NNW 12 19 29.9 1013 10 16.0934 0 0
2:53 pm 14:53 Sunny 75 23.9 11 -11.7 8 8 N 12 19 29.88 1012 10 16.0934 0 0
3:53 pm 15:53 Sunny 75 23.9 9 -12.8 8 8 NNW 12 19 29.87 1011 10 16.0934 0 0
4:53 pm 16:53 Sunny 76 24.4 9 -12.8 7 7 N 13 20 29.85 1011 10 16.0934 0 0
5:53 pm 17:53 Sunny 74 23.3 10 -12.2 8 8 NNW 9 15 29.84 1010 10 16.0934 0 0
6:53 pm 18:53 Clear 72 22.2 11 -11.7 9 9 NNW 9 15 29.84 1011 10 16.0934 0 0
7:53 pm 19:53 Clear 70 21.1 12 -11.1 10 10 NNW 9 15 29.85 1011 10 16.0934 0 0
8:53 pm 20:53 Clear 68 20 13 -10.6 12 12 NNW 10 17 29.86 1011 10 16.0934 0 0
9:53 pm 21:53 Clear 68 20 14 -10 12 12 NW 13 20 29.86 1011 10 16.0934 0 0
10:53 pm 22:53 Clear 66 18.9 14 -10 13 13 NW 13 20 29.86 1011 10 16.0934 0 0
11:53 pm 23:53 Clear 65 18.3 15 -9.4 14 14 W 3 6 29.86 1011 10 16.0934 0 0

Powered by AerisWeather